Wind_Speed
9 8 8 6 6 6 7 8 9 10 11 12 13 14 14 16 16 14 13 17 20 23 26 27 28 32 35 38 36 37 37 41 44 38 40 41 42 42 42 45 47 47 46
13 11 10 10 9 8 9 10 9 10 11 10 12 13 14 16 17 15 16 18 21 23 25 28 28 32 33 36 39 41 42 44 45 45 42 44 47 44 45 47 47 49 48
15 12 12 14 13 12 12 11 11 11 12 14 15 16 18 18 18 19 19 20 22 25 28 29 29 33 32 34 37 38 40 42 46 48 47 47 49 48 45 43 47 50 52
21 18 16 17 18 17 16 16 16 17 19 20 20 21 22 23 22 23 24 25 25 25 27 29 32 33 33 35 37 40 42 46 47 50 50 49 48 51 51 51 55 53 55
26 24 24 23 20 20 22 23 23 20 19 22 22 22 25 27 27 29 30 31 31 32 34 34 35 37 37 37 39 39 42 46 49 51 53 53 52 53 52 51 52 53 52
23 25 27 28 27 26 25 25 26 26 25 26 26 28 28 26 28 30 32 34 37 37 36 37 37 38 37 38 40 42 45 47 49 50 51 52 51 52 53 51 54 54 56
27 28 30 31 32 32 31 30 30 30 30 30 31 32 29 28 28 30 34 37 37 39 41 42 43 43 44 45 46 49 50 50 50 50 50 50 51 52 53 55 52 50 51
33 33 34 33 34 35 35 35 35 37 36 36 35 36 37 35 36 37 41 41 41 39 39 41 45 44 44 44 46 45 45 47 48 48 47 47 51 52 55 58 58 57 54
37 36 37 38 38 39 40 41 41 38 38 39 42 44 42 40 44 45 43 47 48 47 46 46 46 48 49 50 51 51 52 52 54 56 59 62 60 60 65 69 67 68 58
43 42 41 46 45 44 43 44 44 47 46 44 48 49 50 50 49 49 49 52 53 53 52 54 54 56 57 57 58 58 60 62 63 61 64 67 67 70 71 74 63 62 66
36 41 44 44 48 47 47 51 51 52 48 48 50 53 54 54 53 52 54 56 59 60 60 61 63 65 62 62 63 65 70 71 72 70 70 76 78 81 75 78 75 66 79
35 38 40 39 40 44 45 45 46 45 45 49 51 52 55 55 57 60 59 55 57 67 66 67 64 63 62 64 65 68 73 71 75 82 77 86 87 82 88 68 69 69 69
41 43 45 47 48 49 50 50 50 51 53 54 55 57 59 60 58 62 61 65 67 67 70 74 64 71 71 77 72 73 73 66 72 80 84 78 80 62 67 69 70 72 70
48 49 50 52 53 55 57 59 62 64 66 67 66 66 67 68 67 67 62 56 61 68 66 76 67 74 79 74 71 72 73 74 78 75 82 68 72 80 68 68 71 73 74
52 51 49 49 49 50 51 53 55 56 58 60 63 66 69 72 74 75 75 76 77 74 73 76 75 75 74 73 75 76 78 88 76 77 64 69 72 80 75 72 70 68 64
46 47 48 49 50 52 53 54 56 57 58 60 61 63 65 66 69 72 74 76 78 81 81 78 76 71 73 78 84 73 67 67 71 78 80 68 65 67 65 62 63 63 66
49 52 53 55 55 56 57 59 60 60 62 63 64 65 67 68 69 69 71 73 72 70 72 70 69 71 68 67 63 65 69 62 68 72 64 60 60 61 67 70 72 75 78
56 58 59 60 61 62 64 65 66 67 68 69 70 70 69 69 69 69 69 71 70 67 63 65 71 74 69 65 62 61 57 57 59 63 65 67 68 72 74 75 78 80 84
60 62 65 68 70 71 73 74 74 75 74 74 73 72 69 69 66 63 62 63 62 64 61 60 57 57 59 60 59 60 59 61 63 65 66 68 70 74 77 79 80 83 84
66 67 68 68 68 68 67 65 62 61 61 61 59 57 59 58 55 57 60 60 58 56 57 58 58 58 59 60 63 66 67 69 70 70 71 73 75 77 78 81 83 84 85
56 55 54 52 52 54 55 53 50 51 52 51 52 54 54 57 60 59 60 59 59 59 58 58 59 61 63 66 67 69 71 73 75 76 76 78 79 78 81 83 84 86 88
53 54 54 53 54 53 52 51 51 50 49 50 51 53 55 57 58 57 57 58 58 58 58 59 60 61 61 63 64 66 68 70 71 71 72 73 76 79 82 83 83 82 80
52 54 56 58 59 57 56 54 52 51 50 51 52 53 54 55 56 56 56 56 57 57 58 59 60 61 62 63 65 67 70 72 73 76 77 78 78 76 73 69 66 65 67
53 53 55 56 57 57 55 53 53 53 52 52 53 54 55 56 56 56 56 57 58 59 60 62 64 66 68 70 72 75 76 78 78 77 76 71 66 62 60 60 62 64 66
53 53 53 53 52 51 51 52 53 54 54 54 55 56 57 58 59 60 61 63 64 66 67 69 72 73 75 75 76 76 75 74 70 64 60 58 57 58 59 60 61 62 61
53 53 53 52 52 52 53 54 55 55 56 57 59 61 62 63 64 66 67 68 69 70 71 71 71 70 70 68 66 63 60 58 57 55 55 55 56 57 57 57 57 55 52
Wind_Direction
260 246 231 248 255 248 236 220 223 227 234 236 241 241 243 248 251 253 253 255 257 256 252 250 246 247 256 246 250 252 250 255 262 259 264 265 266 272 275 278 278 283 285
260 256 251 233 240 248 230 231 229 237 245 250 249 247 250 253 254 256 262 265 265 260 252 252 250 248 248 248 253 254 254 259 264 266 263 266 268 272 275 278 278 282 285
264 263 259 251 243 236 249 249 241 235 238 243 245 249 255 259 263 265 267 269 265 259 254 251 248 253 256 258 259 259 260 261 264 268 271 271 273 272 273 281 289 286 283
249 252 255 250 249 251 247 247 254 261 258 253 254 254 255 254 254 256 259 261 262 263 260 256 256 259 261 263 264 263 262 264 266 271 272 275 276 274 275 279 280 281 280
256 252 249 254 255 254 257 262 267 267 264 259 259 261 264 260 257 258 258 257 256 256 256 258 258 261 260 260 262 263 263 264 266 270 273 278 279 280 281 282 284 283 285
241 253 256 257 254 255 256 255 260 264 266 265 265 268 273 274 268 266 269 272 267 262 262 261 260 263 266 267 269 270 271 271 273 275 278 279 282 281 282 283 284 287 287
248 242 242 248 256 259 262 263 264 262 263 266 267 267 265 265 268 271 276 279 278 271 267 266 267 268 268 268 269 270 271 273 274 276 276 280 280 282 282 283 284 288 291
256 258 256 254 251 252 253 256 258 264 268 267 265 265 265 265 264 271 275 271 273 273 272 268 268 269 270 271 270 272 275 277 277 278 278 281 284 283 283 283 281 283 286
260 261 258 256 257 258 260 260 260 261 266 270 270 269 266 264 265 260 262 270 271 271 271 271 272 273 274 274 273 275 277 278 280 280 281 283 284 284 286 285 282 279 283
258 260 260 255 256 260 263 265 270 271 272 269 277 274 272 270 270 271 270 272 273 268 269 271 273 274 273 271 272 274 278 283 284 281 282 283 282 282 283 284 282 276 273
258 256 262 263 256 253 255 261 267 268 269 271 271 271 273 274 272 271 273 273 274 276 275 279 277 276 276 276 275 275 279 281 282 283 282 284 282 283 286 280 278 277 278
270 271 271 270 266 263 264 262 263 263 264 264 264 267 268 271 273 270 275 273 278 276 271 275 281 276 278 278 275 276 279 282 284 285 283 287 275 277 275 271 286 286 283
269 272 273 273 273 272 272 271 270 268 268 268 267 267 270 271 269 266 271 271 273 275 273 270 271 275 282 274 271 275 274 283 286 283 273 275 279 275 277 285 287 289 285
271 273 274 271 270 270 271 272 273 274 276 276 273 271 271 272 273 272 268 269 272 273 275 270 273 274 272 283 280 276 271 277 282 278 273 269 268 285 294 286 281 278 281
268 269 270 271 271 271 272 273 274 275 276 277 278 278 279 279 278 276 275 274 275 275 272 269 274 278 278 278 273 270 276 279 273 283 264 285 284 294 291 282 278 278 278
264 266 269 271 274 276 277 278 278 278 278 277 276 277 278 278 278 278 279 279 278 278 277 277 277 281 280 279 276 271 266 269 276 273 273 283 285 286 280 279 280 281 284
266 269 272 275 277 278 278 278 278 278 279 280 281 282 282 281 282 282 282 280 280 282 278 277 279 278 279 274 273 271 270 273 273 274 279 281 281 281 281 285 287 286 290
275 277 278 279 279 280 280 280 280 279 279 279 280 280 281 281 282 281 281 281 280 279 279 279 275 276 280 279 278 278 278 279 279 278 278 283 286 288 286 284 284 285 286
279 280 281 281 281 281 280 280 279 279 279 278 279 279 279 279 280 279 277 277 275 275 276 274 270 270 271 274 277 280 281 282 282 282 282 282 282 282 284 286 288 289 292
279 281 281 282 283 284 284 285 285 284 283 282 281 279 275 276 279 280 279 276 275 274 272 272 274 276 278 279 279 281 282 283 283 284 285 286 288 288 290 291 291 292 292
284 285 286 288 289 290 288 286 284 285 283 281 278 281 284 282 283 281 277 275 275 276 276 276 277 278 279 280 280 280 280 281 282 283 285 286 288 290 291 290 291 291 292
284 282 281 283 282 285 285 283 283 283 281 281 281 280 280 279 280 278 279 278 277 278 279 279 280 281 281 281 282 281 282 282 283 284 286 287 288 287 286 288 288 288 290
284 282 279 279 280 280 279 280 280 281 282 283 282 281 280 281 281 281 280 281 281 282 283 284 284 284 284 285 286 286 287 288 288 288 287 287 287 288 288 290 292 294 296
281 281 280 280 280 280 280 280 281 280 280 279 279 280 280 281 282 284 284 284 284 284 284 284 284 284 285 286 286 287 288 288 289 289 290 291 292 293 293 294 296 299 302
279 279 279 278 278 278 277 277 277 278 278 278 279 280 280 281 281 282 282 283 284 284 285 285 284 285 285 285 286 286 286 288 289 290 291 292 293 293 294 296 299 301 303
279 278 277 276 276 276 276 276 276 277 278 279 280 281 283 284 284 284 284 284 284 284 284 284 284 285 286 288 289 289 290 290 291 292 292 292 292 294 297 300 303 304 305
Height
5690 5691 5690 5690 5691 5693 5695 5697 5697 5697 5699 5701 5702 5703 5704 5705 5706 5707 5706 5707 5708 5709 5709 5709 5710 5712 5713 5714 5715 5715 5715 5714 5712 5719 5716 5717 5716 5715 5713 5710 5708 5705 5704
5688 5688 5689 5689 5690 5691 5693 5693 5693 5695 5695 5695 5697 5698 5700 5701 5701 5701 5701 5701 5702 5703 5703 5703 5705 5705 5706 5708 5707 5708 5706 5708 5704 5703 5707 5706 5704 5704 5701 5699 5697 5694 5691
5684 5685 5685 5686 5687 5689 5689 5690 5690 5691 5691 5692 5692 5693 5694 5694 5694 5695 5695 5695 5696 5696 5696 5697 5699 5697 5700 5700 5699 5698 5698 5697 5694 5691 5693 5694 5693 5692 5690 5687 5685 5681 5679
5679 5680 5681 5681 5682 5684 5685 5685 5686 5687 5687 5688 5688 5688 5688 5687 5687 5687 5687 5688 5688 5688 5687 5688 5688 5688 5689 5688 5687 5687 5687 5684 5683 5679 5679 5680 5679 5678 5678 5676 5671 5669 5665
5673 5673 5674 5676 5677 5679 5680 5681 5682 5683 5682 5682 5682 5682 5681 5681 5682 5681 5680 5679 5679 5678 5678 5679 5679 5678 5677 5677 5675 5676 5673 5670 5669 5667 5666 5666 5666 5663 5662 5660 5657 5652 5651
5671 5670 5669 5667 5668 5671 5673 5674 5675 5675 5675 5675 5676 5676 5676 5676 5675 5674 5673 5673 5672 5671 5671 5669 5669 5667 5668 5667 5665 5663 5661 5658 5657 5655 5654 5652 5651 5647 5645 5644 5639 5637 5633
5659 5660 5662 5663 5663 5664 5665 5666 5668 5667 5667 5668 5668 5667 5667 5668 5667 5666 5663 5660 5659 5659 5660 5659 5658 5658 5656 5655 5653 5650 5648 5645 5643 5642 5639 5637 5635 5633 5630 5627 5624 5620 5618
5652 5653 5653 5655 5656 5656 5656 5656 5657 5657 5658 5658 5657 5657 5657 5658 5656 5654 5652 5649 5649 5649 5648 5647 5645 5645 5643 5641 5638 5635 5633 5631 5628 5626 5623 5622 5620 5618 5615 5612 5608 5601 5597
5642 5642 5643 5644 5645 5646 5647 5647 5646 5646 5648 5647 5646 5644 5643 5645 5641 5642 5641 5638 5637 5636 5634 5632 5631 5629 5629 5628 5624 5621 5619 5617 5616 5613 5610 5607 5603 5600 5597 5594 5589 5585 5576
5631 5631 5632 5631 5632 5634 5635 5635 5635 5635 5635 5634 5631 5631 5631 5630 5629 5628 5628 5625 5623 5622 5621 5618 5615 5614 5613 5612 5609 5607 5604 5602 5599 5596 5593 5589 5586 5582 5578 5573 5569 5562 5560
5617 5619 5620 5620 5620 5620 5620 5621 5621 5621 5620 5619 5618 5616 5615 5615 5615 5615 5614 5612 5610 5607 5605 5602 5599 5598 5596 5594 5592 5589 5586 5582 5578 5574 5571 5569 5563 5560 5555 5552 5548 5544 5543
5607 5607 5607 5606 5607 5608 5608 5607 5607 5607 5606 5604 5602 5601 5599 5598 5599 5598 5597 5595 5592 5589 5585 5584 5582 5580 5577 5575 5571 5569 5566 5561 5557 5554 5551 5541 5539 5537 5534 5532 5528 5526 5522
5599 5597 5596 5595 5593 5593 5592 5592 5591 5590 5589 5587 5585 5583 5582 5581 5581 5581 5580 5578 5575 5572 5569 5566 5566 5559 5554 5552 5550 5550 5546 5541 5539 5535 5526 5525 5521 5515 5515 5511 5508 5504 5500
5587 5586 5585 5584 5582 5580 5578 5576 5574 5571 5569 5568 5567 5566 5565 5562 5561 5561 5562 5547 5549 5553 5551 5548 5542 5541 5537 5533 5531 5526 5523 5522 5518 5513 5509 5503 5497 5492 5490 5488 5484 5480 5477
5573 5572 5571 5570 5569 5568 5566 5563 5561 5558 5556 5552 5550 5547 5543 5541 5540 5539 5538 5536 5533 5531 5530 5526 5521 5518 5517 5513 5510 5507 5503 5500 5492 5491 5486 5481 5475 5472 5468 5464 5461 5457 5453
5561 5560 5559 5557 5555 5554 5552 5549 5547 5544 5541 5537 5534 5531 5528 5525 5522 5519 5516 5513 5510 5508 5505 5503 5500 5497 5494 5492 5489 5484 5479 5476 5471 5469 5466 5459 5454 5450 5450 5446 5442 5437 5432
5548 5547 5545 5543 5541 5539 5536 5533 5531 5527 5524 5520 5516 5512 5509 5506 5502 5499 5496 5493 5489 5487 5484 5482 5479 5478 5473 5470 5466 5463 5459 5454 5450 5448 5444 5439 5436 5431 5429 5425 5423 5418 5412
5533 5531 5529 5526 5523 5521 5518 5514 5511 5508 5505 5502 5498 5495 5491 5487 5483 5480 5476 5473 5470 5467 5465 5462 5460 5458 5456 5451 5447 5443 5440 5438 5433 5429 5425 5421 5416 5413 5409 5405 5401 5396 5390
5516 5513 5510 5506 5503 5499 5496 5492 5489 5486 5483 5479 5476 5472 5469 5466 5463 5460 5458 5455 5451 5449 5446 5444 5441 5438 5435 5432 5428 5425 5421 5418 5414 5410 5406 5402 5397 5394 5390 5383 5376 5370 5361
5497 5493 5489 5485 5481 5477 5473 5470 5466 5463 5460 5458 5455 5452 5450 5448 5445 5442 5440 5437 5434 5431 5428 5425 5422 5419 5416 5413 5409 5406 5403 5399 5395 5390 5386 5381 5375 5370 5364 5357 5351 5346 5340
5477 5473 5470 5467 5464 5461 5457 5454 5450 5447 5443 5440 5438 5435 5433 5430 5428 5425 5422 5419 5415 5412 5410 5407 5404 5402 5399 5396 5392 5390 5385 5380 5375 5369 5364 5359 5353 5346 5342 5337 5330 5325 5317
5459 5456 5453 5450 5447 5444 5441 5438 5435 5431 5428 5424 5421 5418 5416 5414 5411 5408 5405 5402 5397 5394 5391 5388 5386 5382 5378 5375 5372 5368 5363 5360 5355 5349 5343 5337 5332 5328 5322 5315 5308 5302 5294
5441 5438 5435 5432 5429 5426 5424 5421 5418 5415 5412 5408 5404 5401 5398 5395 5393 5390 5387 5383 5379 5376 5373 5369 5366 5363 5359 5356 5352 5347 5342 5337 5331 5327 5322 5317 5312 5305 5298 5291 5284 5278 5272
5422 5419 5416 5414 5411 5408 5406 5403 5401 5398 5395 5391 5388 5385 5382 5379 5376 5372 5369 5365 5362 5358 5355 5351 5347 5342 5339 5334 5329 5324 5319 5314 5309 5304 5298 5293 5287 5281 5276 5272 5267 5260 5252
5404 5401 5399 5396 5393 5390 5387 5385 5383 5381 5377 5374 5370 5366 5363 5359 5357 5354 5350 5346 5342 5337 5333 5329 5324 5320 5316 5311 5307 5303 5298 5292 5288 5282 5277 5273 5269 5265 5261 5255 5248 5242 5235
5387 5384 5381 5378 5375 5373 5370 5367 5364 5362 5359 5355 5352 5349 5345 5341 5336 5333 5330 5325 5321 5316 5312 5307 5303 5297 5293 5289 5284 5281 5276 5273 5269 5265 5262 5258 5254 5249 5244 5238 5231 5225 5219